FW0597 Weather Reports


Display with metric or nautical units.
time (UTC)temp
F
wind
direction
speed
MPH
gust
MPH
rain 1hr
in
rain 24hr
in
rain mn
in
humidity
%
barometer
mb
20191023095056 34 7 0.0 0.0 0.00 0.00 0.00 44 892.0
20191023094550 35 10 0.0 0.0 0.00 0.00 0.00 44 892.0
20191023094045 35 10 0.0 0.0 0.00 0.00 0.00 42 891.7
20191023093542 36 10 0.0 0.0 0.00 0.00 0.00 40 892.0
20191023093035 37 10 0.0 0.0 0.00 0.00 0.00 39 892.0
20191023092531 38 38 0.0 0.0 0.00 0.00 0.00 38 892.0
20191023092028 38 38 0.0 0.0 0.00 0.00 0.00 36 892.0
20191023091522 39 0 0.0 0.0 0.00 0.00 0.00 35 892.0
20191023091015 40 0 0.0 2.0 0.00 0.00 0.00 38 892.0
20191023090512 40 332 0.0 2.0 0.00 0.00 0.00 37 892.4
20191023090006 41 331 0.0 2.0 0.00 0.00 0.00 36 892.4
20191023085502 41 354 0.0 2.0 0.00 0.00 0.00 35 892.0
20191023084958 41 4 0.0 5.0 0.00 0.00 0.00 34 892.4
20191023084452 41 287 1.0 5.0 0.00 0.00 0.00 34 892.0
20191023083947 41 325 0.0 2.0 0.00 0.00 0.00 35 892.0
20191023083448 41 286 0.0 2.0 0.00 0.00 0.00 35 891.3
20191023082937 42 13 0.0 2.0 0.00 0.00 0.00 35 891.7
20191023082432 42 211 1.0 2.0 0.00 0.00 0.00 35 891.7
20191023081929 42 236 1.0 2.0 0.00 0.00 0.00 35 891.7
20191023081423 41 279 0.0 2.0 0.00 0.00 0.00 35 891.3
20191023080918 41 319 0.0 5.0 0.00 0.00 0.00 35 891.7
20191023080414 40 234 3.0 5.0 0.00 0.00 0.00 36 891.7
20191023075908 40 329 0.0 2.0 0.00 0.00 0.00 38 891.3
20191023075403 39 325 0.0 2.0 0.00 0.00 0.00 39 891.3
20191023074859 39 333 0.0 0.0 0.00 0.00 0.00 40 891.3
20191023074354 40 320 0.0 0.0 0.00 0.00 0.00 40 891.3
20191023073849 40 284 0.0 0.0 0.00 0.00 0.00 39 891.7
20191023073346 40 16 0.0 2.0 0.00 0.00 0.00 39 891.7
20191023072839 41 267 0.0 2.0 0.00 0.00 0.00 39 891.7
20191023072334 41 267 0.0 0.0 0.00 0.00 0.00 38 891.7
20191023071831 41 266 0.0 2.0 0.00 0.00 0.00 36 891.7
20191023071325 41 266 0.0 2.0 0.00 0.00 0.00 36 891.7
20191023070820 41 292 0.0 2.0 0.00 0.00 0.00 36 891.7
20191023070316 41 40 0.0 2.0 0.00 0.00 0.00 35 892.0
20191023065810 41 304 0.0 2.0 0.00 0.00 0.00 35 892.0
20191023065305 41 337 0.0 2.0 0.00 0.00 0.00 35 892.0
20191023064802 41 335 0.0 2.0 0.00 0.00 0.00 34 892.4
20191023064256 41 83 0.0 2.0 0.00 0.00 0.00 34 892.0
20191023063750 42 29 0.0 5.0 0.00 0.00 0.00 33 892.4
20191023063247 42 264 1.0 5.0 0.00 0.00 0.00 33 892.7
20191023062741 42 353 0.0 2.0 0.00 0.00 0.00 32 892.4
20191023062236 42 34 0.0 2.0 0.00 0.00 0.00 32 892.7
20191023061738 42 327 0.0 2.0 0.00 0.00 0.00 32 892.7
20191023061226 42 292 1.0 5.0 0.00 0.00 0.00 31 893.0
20191023060722 42 316 1.0 5.0 0.00 0.00 0.00 31 892.7
20191023060228 42 298 0.0 2.0 0.00 0.00 0.00 31 893.0
20191023055711 41 302 0.0 2.0 0.00 0.00 0.00 32 892.7
20191023055207 41 279 0.0 2.0 0.00 0.00 0.00 32 893.0
20191023054703 41 292 0.0 2.0 0.00 0.00 0.00 32 892.7
20191023054158 40 325 0.0 2.0 0.00 0.00 0.00 33 893.0
20191023053657 39 307 0.0 2.0 0.00 0.00 0.00 33 893.0
20191023053148 39 329 0.0 2.0 0.00 0.00 0.00 35 893.0
20191023052643 38 312 0.0 2.0 0.00 0.00 0.00 34 893.4
20191023052138 38 306 0.0 2.0 0.00 0.00 0.00 36 893.4
20191023051635 38 302 0.0 2.0 0.00 0.00 0.00 36 893.4
20191023051128 38 301 0.0 2.0 0.00 0.00 0.00 36 893.4
20191023050624 38 305 0.0 2.0 0.00 0.00 0.00 35 893.4
20191023050120 38 272 0.0 2.0 0.00 0.00 0.00 35 894.0
20191023045615 38 308 0.0 2.0 0.00 0.00 0.00 35 893.7
20191023045110 38 292 0.0 2.0 0.00 0.00 0.00 35 894.0
20191023044605 39 284 0.0 2.0 0.00 0.00 0.00 35 893.7
20191023044059 40 286 0.0 2.0 0.00 0.00 0.00 35 894.0
20191023043555 40 311 0.0 2.0 0.00 0.00 0.00 34 894.0
20191023043050 41 311 0.0 2.0 0.00 0.00 0.00 34 894.0
20191023042545 41 261 0.0 2.0 0.00 0.00 0.00 32 894.0
20191023042040 41 286 0.0 2.0 0.00 0.00 0.00 32 894.4
20191023041541 41 305 0.0 2.0 0.00 0.00 0.00 32 894.4
20191023041030 41 280 0.0 2.0 0.00 0.00 0.00 32 894.4
20191023040525 41 336 0.0 2.0 0.00 0.00 0.00 33 894.4
20191023040025 42 335 0.0 2.0 0.00 0.00 0.00 32 894.4
20191023035517 42 336 0.0 0.0 0.00 0.00 0.00 32 894.4
20191023035011 43 336 0.0 0.0 0.00 0.00 0.00 31 894.4
20191023034553 43 336 0.0 0.0 0.00 0.00 0.00 30 894.7
20191023034201 44 336 0.0 2.0 0.00 0.00 0.00 30 894.7
20191023032953 44 309 0.0 2.0 0.00 0.00 0.00 29 894.7
20191023032446 45 317 0.0 2.0 0.00 0.00 0.00 29 894.7
20191023031942 45 331 0.0 0.0 0.00 0.00 0.00 29 894.7
20191023031443 45 48 0.0 2.0 0.00 0.00 0.00 28 894.7
20191023030932 45 335 0.0 2.0 0.00 0.00 0.00 27 894.7
20191023030427 45 335 0.0 0.0 0.00 0.00 0.00 27 895.1
20191023025924 46 17 0.0 0.0 0.00 0.00 0.00 27 895.1
20191023025417 46 16 0.0 2.0 0.00 0.00 0.00 27 895.1
20191023024913 46 334 0.0 2.0 0.00 0.00 0.00 25 895.4
20191023024409 46 335 0.0 0.0 0.00 0.00 0.00 25 895.1
20191023023903 47 353 0.0 0.0 0.00 0.00 0.00 24 895.1
20191023023358 46 15 0.0 2.0 0.00 0.00 0.00 25 895.1
20191023022855 46 10 0.0 2.0 0.00 0.00 0.00 25 895.1
20191023022349 46 33 0.0 0.0 0.00 0.00 0.00 25 895.1
20191023021849 46 37 0.0 0.0 0.00 0.00 0.00 25 895.1
20191023021341 46 33 0.0 0.0 0.00 0.00 0.00 25 895.1
20191023020834 46 61 0.0 2.0 0.00 0.00 0.00 23 895.1
20191023020330 46 6 0.0 2.0 0.00 0.00 0.00 23 895.1
20191023015825 46 29 0.0 0.0 0.00 0.00 0.00 23 895.1
20191023015320 46 43 0.0 0.0 0.00 0.00 0.00 22 895.1
20191023014815 46 43 0.0 0.0 0.00 0.00 0.00 22 895.1
20191023014316 47 43 0.0 0.0 0.00 0.00 0.00 21 895.1
20191023013809 47 21 0.0 0.0 0.00 0.00 0.00 22 895.1
20191023013305 47 13 0.0 0.0 0.00 0.00 0.00 21 895.4
20191023012801 47 8 0.0 0.0 0.00 0.00 0.00 24 895.4
20191023012250 48 7 0.0 0.0 0.00 0.00 0.00 23 895.4
20191023011751 48 358 0.0 0.0 0.00 0.00 0.00 24 895.4
20191023011251 49 340 0.0 0.0 0.00 0.00 0.00 21 895.4
20191023010736 49 337 0.0 0.0 0.00 0.00 0.00 24 895.7
20191023010230 50 337 0.0 0.0 0.00 0.00 0.00 23 895.4
20191023005727 51 338 0.0 0.0 0.00 0.00 0.00 22 895.7
20191023005221 51 338 0.0 0.0 0.00 0.00 0.00 21 895.7
20191023004716 52 339 0.0 0.0 0.00 0.00 0.00 21 895.7
20191023004213 53 341 0.0 0.0 0.00 0.00 0.00 20 895.7
20191023003707 54 335 0.0 0.0 0.00 0.00 0.00 20 895.7
20191023003203 55 333 0.0 0.0 0.00 0.00 0.00 19 895.7
20191023002700 56 350 0.0 2.0 0.00 0.00 0.00 19 895.7
20191023002152 57 332 0.0 2.0 0.00 0.00 0.00 18 895.7
20191023001647 58 348 0.0 2.0 0.00 0.00 0.00 18 895.4
20191023001144 59 359 0.0 2.0 0.00 0.00 0.00 18 895.7
20191023000637 61 351 0.0 2.0 0.00 0.00 0.00 20 895.4
20191023000133 62 350 0.0 2.0 0.00 0.00 0.00 21 895.7
20191022235634 63 351 0.0 2.0 0.00 0.00 0.00 20 895.7
20191022235123 64 333 0.0 2.0 0.00 0.00 0.00 19 895.4
20191022234618 65 332 0.0 2.0 0.00 0.00 0.00 19 895.7
20191022234124 66 344 0.0 5.0 0.00 0.00 0.00 18 895.7
20191022233608 67 322 0.0 5.0 0.00 0.00 0.00 20 895.7
20191022233103 67 217 1.0 5.0 0.00 0.00 0.00 21 895.7
20191022232600 68 320 0.0 5.0 0.00 0.00 0.00 18 895.4
20191022232054 69 256 1.0 2.0 0.00 0.00 0.00 16 895.7
20191022231549 69 24 0.0 8.0 0.00 0.00 0.00 14 896.1
20191022231044 70 19 0.0 8.0 0.00 0.00 0.00 13 895.7
20191022230539 71 321 0.0 5.0 0.00 0.00 0.00 12 895.7
20191022230034 71 10 0.0 8.0 0.00 0.00 0.00 12 895.7
20191022225530 71 44 0.0 10.0 0.00 0.00 0.00 19 895.7
20191022225024 71 265 0.0 10.0 0.00 0.00 0.00 19 896.1
20191022224519 71 6 0.0 5.0 0.00 0.00 0.00 19 896.1
20191022224021 71 295 2.0 5.0 0.00 0.00 0.00 19 896.4
20191022223509 71 341 0.0 10.0 0.00 0.00 0.00 19 896.1
20191022223005 71 52 0.0 10.0 0.00 0.00 0.00 19 896.1
20191022222501 72 7 1.0 10.0 0.00 0.00 0.00 19 896.1
20191022221955 72 16 0.0 10.0 0.00 0.00 0.00 19 896.4
20191022221450 72 138 0.0 8.0 0.00 0.00 0.00 19 896.4
20191022220947 72 9 0.0 8.0 0.00 0.00 0.00 19 896.8
20191022220440 72 292 0.0 8.0 0.00 0.00 0.00 18 896.8
20191022215935 72 243 2.0 8.0 0.00 0.00 0.00 18 896.8
20191022215432 72 281 2.0 8.0 0.00 0.00 0.00 18 896.8
20191022214925 72 43 2.0 13.0 0.00 0.00 0.00 18 896.8
20191022214421 72 237 3.0 13.0 0.00 0.00 0.00 18 897.1
20191022213917 72 340 2.0 13.0 0.00 0.00 0.00 19 896.8
20191022213411 72 326 7.0 13.0 0.00 0.00 0.00 19 897.1
20191022212906 72 187 4.0 8.0 0.00 0.00 0.00 18 897.1
20191022212403 71 289 1.0 8.0 0.00 0.00 0.00 18 897.1
20191022211856 71 154 4.0 13.0 0.00 0.00 0.00 18 897.1
20191022211351 71 9 0.0 13.0 0.00 0.00 0.00 18 897.4
20191022210848 71 239 5.0 10.0 0.00 0.00 0.00 19 897.4
20191022210342 71 279 2.0 8.0 0.00 0.00 0.00 18 897.1
20191022205836 71 352 1.0 13.0 0.00 0.00 0.00 19 897.8
20191022205338 71 222 6.0 13.0 0.00 0.00 0.00 19 897.8
20191022204827 71 222 4.0 10.0 0.00 0.00 0.00 19 897.8
20191022204322 71 276 5.0 8.0 0.00 0.00 0.00 19 897.8
20191022203818 70 223 1.0 8.0 0.00 0.00 0.00 19 897.8
20191022203313 70 240 4.0 8.0 0.00 0.00 0.00 19 898.1
20191022202807 70 175 4.0 8.0 0.00 0.00 0.00 19 898.1
20191022202304 70 213 3.0 13.0 0.00 0.00 0.00 19 898.4
20191022201757 70 228 3.0 13.0 0.00 0.00 0.00 20 898.4
20191022201253 70 273 3.0 10.0 0.00 0.00 0.00 19 898.4
20191022200749 70 199 6.0 10.0 0.00 0.00 0.00 19 898.8
20191022200242 70 150 1.0 10.0 0.00 0.00 0.00 20 898.8
20191022195738 69 112 4.0 10.0 0.00 0.00 0.00 19 898.8
20191022195235 69 240 1.0 10.0 0.00 0.00 0.00 20 899.1
20191022194728 69 289 1.0 8.0 0.00 0.00 0.00 19 899.5
20191022194224 69 66 2.0 15.0 0.00 0.00 0.00 19 899.8
20191022193720 69 59 3.0 15.0 0.00 0.00 0.00 20 899.5
20191022193214 69 271 3.0 10.0 0.00 0.00 0.00 20 899.8
20191022192709 68 281 1.0 8.0 0.00 0.00 0.00 20 900.1
20191022192205 68 84 0.0 10.0 0.00 0.00 0.00 20 900.1
20191022191659 68 28 0.0 13.0 0.00 0.00 0.00 21 900.1
20191022191155 68 195 3.0 13.0 0.00 0.00 0.00 20 900.1
20191022190651 68 301 2.0 8.0 0.00 0.00 0.00 19 900.5
20191022190144 68 109 1.0 10.0 0.00 0.00 0.00 21 901.2
20191022185640 68 250 2.0 10.0 0.00 0.00 0.00 21 901.2
20191022185136 68 28 0.0 8.0 0.00 0.00 0.00 20 901.2
20191022184630 68 335 1.0 10.0 0.00 0.00 0.00 21 901.2
20191022184125 68 229 4.0 10.0 0.00 0.00 0.00 21 901.2
20191022183621 68 326 0.0 10.0 0.00 0.00 0.00 21 901.5
20191022183116 67 352 0.0 8.0 0.00 0.00 0.00 20 901.2
20191022182610 67 294 2.0 8.0 0.00 0.00 0.00 20 901.8
20191022182107 67 274 1.0 10.0 0.00 0.00 0.00 20 901.8
20191022181601 66 231 6.0 10.0 0.00 0.00 0.00 21 901.8
20191022181056 66 213 3.0 10.0 0.00 0.00 0.00 21 901.8
20191022180552 66 110 2.0 10.0 0.00 0.00 0.00 21 902.2
20191022180046 66 238 3.0 8.0 0.00 0.00 0.00 22 902.2
20191022175541 66 348 0.0 10.0 0.00 0.00 0.00 21 902.2
20191022175037 65 22 0.0 10.0 0.00 0.00 0.00 21 902.5
20191022174531 65 3 1.0 5.0 0.00 0.00 0.00 21 902.5
20191022174026 65 245 4.0 8.0 0.00 0.00 0.00 21 902.9
20191022173523 65 133 0.0 8.0 0.00 0.00 0.00 21 902.5
20191022173016 64 231 5.0 8.0 0.00 0.00 0.00 22 902.5
20191022172512 64 347 0.0 8.0 0.00 0.00 0.00 19 902.9
20191022172009 64 343 0.0 2.0 0.00 0.00 0.00 19 902.9
20191022171502 64 310 1.0 5.0 0.00 0.00 0.00 21 902.9
20191022170958 63 212 5.0 8.0 0.00 0.00 0.00 22 903.2
20191022170454 63 301 0.0 8.0 0.00 0.00 0.00 20 902.9
20191022165957 62 309 0.0 5.0 0.00 0.00 0.00 22 903.2
20191022165443 62 57 0.0 5.0 0.00 0.00 0.00 20 903.5
20191022164939 62 4 0.0 2.0 0.00 0.00 0.00 21 903.2
20191022164433 61 340 1.0 5.0 0.00 0.00 0.00 22 903.2
20191022163928 62 313 0.0 5.0 0.00 0.00 0.00 22 903.2
20191022163425 61 12 0.0 5.0 0.00 0.00 0.00 23 903.2
20191022162918 61 306 0.0 5.0 0.00 0.00 0.00 23 903.2
20191022162413 61 340 0.0 5.0 0.00 0.00 0.00 22 903.5
20191022161910 61 325 0.0 2.0 0.00 0.00 0.00 23 903.5
20191022161409 61 348 0.0 2.0 0.00 0.00 0.00 23 903.2
20191022160858 60 206 1.0 2.0 0.00 0.00 0.00 23 903.2
20191022160355 60 38 0.0 5.0 0.00 0.00 0.00 23 903.5
20191022155850 59 264 0.0 5.0 0.00 0.00 0.00 23 903.5
20191022155345 58 243 3.0 5.0 0.00 0.00 0.00 24 903.2
20191022154840 58 314 0.0 5.0 0.00 0.00 0.00 21 903.5
20191022154334 57 336 0.0 5.0 0.00 0.00 0.00 22 903.9
20191022153829 56 356 0.0 2.0 0.00 0.00 0.00 24 903.9
20191022153326 55 5 0.0 5.0 0.00 0.00 0.00 25 903.9
20191022152820 54 353 0.0 5.0 0.00 0.00 0.00 26 903.9
20191022152315 53 259 0.0 8.0 0.00 0.00 0.00 28 903.9
20191022151812 53 227 4.0 8.0 0.00 0.00 0.00 28 903.9
20191022151305 52 304 3.0 5.0 0.00 0.00 0.00 28 903.9
20191022150801 51 266 1.0 5.0 0.00 0.00 0.00 28 903.9
20191022150257 50 248 0.0 5.0 0.00 0.00 0.00 30 903.9
20191022145751 49 261 0.0 8.0 0.00 0.00 0.00 30 903.9
20191022145245 48 216 3.0 8.0 0.00 0.00 0.00 32 903.9
20191022144742 47 227 3.0 5.0 0.00 0.00 0.00 32 903.5
20191022144236 46 303 0.0 2.0 0.00 0.00 0.00 33 903.5
20191022143731 44 352 0.0 2.0 0.00 0.00 0.00 35 903.5
20191022143228 43 326 0.0 2.0 0.00 0.00 0.00 37 903.5
20191022142722 42 326 0.0 2.0 0.00 0.00 0.00 37 903.5
20191022142216 41 323 0.0 2.0 0.00 0.00 0.00 39 903.5
20191022141713 40 319 0.0 2.0 0.00 0.00 0.00 39 903.2
20191022141206 40 357 0.0 2.0 0.00 0.00 0.00 40 902.9
20191022140702 39 16 0.0 2.0 0.00 0.00 0.00 41 903.2
20191022140159 38 357 0.0 2.0 0.00 0.00 0.00 42 902.9
20191022135652 38 320 0.0 2.0 0.00 0.00 0.00 43 902.9
20191022135147 37 335 0.0 2.0 0.00 0.00 0.00 45 902.9
20191022134644 36 1 0.0 2.0 0.00 0.00 0.00 46 902.9
20191022134137 36 347 0.0 2.0 0.00 0.00 0.00 48 902.9
20191022133633 35 356 0.0 2.0 0.00 0.00 0.00 46 902.9
20191022133129 35 1 0.0 2.0 0.00 0.00 0.00 47 902.9
20191022132623 35 346 0.0 2.0 0.00 0.00 0.00 48 902.9
20191022132118 34 332 0.0 2.0 0.00 0.00 0.00 48 902.9
20191022131615 34 356 0.0 2.0 0.00 0.00 0.00 49 902.5
20191022131108 34 359 0.0 2.0 0.00 0.00 0.00 49 902.5
20191022130604 34 336 0.0 2.0 0.00 0.00 0.00 49 902.9
20191022130100 34 334 0.0 2.0 0.00 0.00 0.00 49 902.5
20191022125553 34 339 0.0 2.0 0.00 0.00 0.00 50 902.9
20191022125049 34 338 0.0 2.0 0.00 0.00 0.00 50 902.5
20191022124546 34 350 0.0 2.0 0.00 0.00 0.00 50 902.5
20191022124049 34 337 0.0 2.0 0.00 0.00 0.00 49 902.5
20191022123534 34 357 1.0 2.0 0.00 0.00 0.00 49 902.2
20191022123030 34 314 0.0 2.0 0.00 0.00 0.00 49 902.5
20191022122525 34 332 0.0 2.0 0.00 0.00 0.00 49 902.5
20191022122020 35 333 0.0 2.0 0.00 0.00 0.00 49 902.5
20191022121516 35 359 0.0 2.0 0.00 0.00 0.00 49 902.5
20191022121010 35 348 0.0 2.0 0.00 0.00 0.00 46 902.2
20191022120506 36 316 0.0 2.0 0.00 0.00 0.00 45 902.5
20191022120001 36 325 0.0 2.0 0.00 0.00 0.00 44 902.5
20191022115456 36 1 0.0 2.0 0.00 0.00 0.00 42 902.5
20191022114951 36 347 0.0 2.0 0.00 0.00 0.00 42 902.5
20191022114447 36 319 0.0 2.0 0.00 0.00 0.00 41 902.2
20191022113941 36 349 0.0 2.0 0.00 0.00 0.00 41 902.5
20191022113436 36 0 1.0 2.0 0.00 0.00 0.00 42 902.2
20191022112932 36 332 0.0 2.0 0.00 0.00 0.00 42 902.2
20191022112426 36 335 0.0 2.0 0.00 0.00 0.00 43 902.2
20191022111922 35 356 0.0 2.0 0.00 0.00 0.00 43 902.2
20191022111418 36 1 0.0 2.0 0.00 0.00 0.00 43 902.2
20191022110912 36 337 0.0 2.0 0.00 0.00 0.00 44 902.2
20191022110408 36 338 0.0 2.0 0.00 0.00 0.00 43 902.2
20191022105903 36 333 0.0 5.0 0.00 0.00 0.00 42 902.2
20191022105358 36 0 0.0 5.0 0.00 0.00 0.00 40 901.8
20191022104855 36 273 0.0 5.0 0.00 0.00 0.00 40 901.8
20191022104850 36 330 0.0 2.0 0.00 0.00 0.00 40 902.2
20191022103842 36 309 0.0 2.0 0.00 0.00 0.00 40 902.2
20191022103338 36 319 1.0 2.0 0.00 0.00 0.00 40 902.2
20191022102834 36 331 0.0 2.0 0.00 0.00 0.00 40 902.2
20191022102328 36 326 0.0 2.0 0.00 0.00 0.00 40 901.8
20191022102109 32 349 0.0 2.0 0.00 0.00 0.00 42 901.5
20191022102104 32 323 0.0 2.0 0.00 0.00 0.00 41 901.5
20191022102059 32 350 0.0 2.0 0.00 0.00 0.00 40 901.5
20191022102053 33 4 0.0 2.0 0.00 0.00 0.00 41 901.5
20191022102047 33 355 0.0 2.0 0.00 0.00 0.00 41 901.2
20191022102042 33 333 0.0 2.0 0.00 0.00 0.00 41 901.2
20191022102036 33 310 0.0 2.0 0.00 0.00 0.00 41 901.2
20191022102031 33 325 0.0 2.0 0.00 0.00 0.00 41 901.2
20191022102026 33 325 0.0 2.0 0.00 0.00 0.00 41 901.2
20191022102021 33 325 0.0 2.0 0.00 0.00 0.00 41 901.2
20191022102008 35 305 0.0 2.0 0.00 0.00 0.00 40 901.2
20191022102003 35 319 0.0 2.0 0.00 0.00 0.00 38 901.2
20191022101957 35 310 0.0 5.0 0.00 0.00 0.00 38 901.2
20191022101952 35 322 0.0 5.0 0.00 0.00 0.00 38 901.5
20191022101946 37 332 0.0 2.0 0.00 0.00 0.00 36 901.2
20191022101938 35 340 0.0 2.0 0.00 0.00 0.00 42 901.5
20191022101930 34 330 0.0 5.0 0.00 0.00 0.00 41 901.5
20191022101913 35 328 0.0 2.0 0.00 0.00 0.00 40 901.8
20191022101909 35 1 0.0 2.0 0.00 0.00 0.00 39 901.8
20191022101904 35 339 0.0 2.0 0.00 0.00 0.00 40 901.8
20191022101852 33 0 0.0 5.0 0.00 0.00 0.00 41 901.8
20191022101846 34 353 0.0 2.0 0.00 0.00 0.00 39 901.8
20191022101841 34 336 0.0 2.0 0.00 0.00 0.00 40 901.8
20191022101837 34 249 1.0 2.0 0.00 0.00 0.00 40 901.8
20191022101831 35 331 0.0 2.0 0.00 0.00 0.00 40 901.8
20191022101825 35 337 0.0 2.0 0.00 0.00 0.00 39 901.8
20191022101821 35 332 0.0 2.0 0.00 0.00 0.00 39 901.8
20191022101817 35 338 0.0 2.0 0.00 0.00 0.00 39 901.8
20191022101813 35 331 0.0 2.0 0.00 0.00 0.00 38 901.8
20191022101808 35 330 0.0 2.0 0.00 0.00 0.00 38 901.8
20191022101804 35 330 0.0 2.0 0.00 0.00 0.00 38 901.8
20191022101800 35 350 0.0 2.0 0.00 0.00 0.00 40 901.8
20191022101756 34 326 0.0 2.0 0.00 0.00 0.00 39 901.8
20191022101752 33 6 0.0 2.0 0.00 0.00 0.00 41 901.8
20191022101748 33 7 0.0 5.0 0.00 0.00 0.00 39 902.2
20191022101743 33 358 0.0 5.0 0.00 0.00 0.00 39 902.2
20191022101736 34 339 0.0 5.0 0.00 0.00 0.00 40 901.8
20191022101732 34 278 0.0 2.0 0.00 0.00 0.00 39 901.8
20191022101728 34 334 0.0 2.0 0.00 0.00 0.00 40 901.8
20191022101724 34 338 0.0 2.0 0.00 0.00 0.00 39 901.8
20191022101719 35 274 1.0 2.0 0.00 0.00 0.00 41 901.8
20191022101712 34 333 0.0 5.0 0.00 0.00 0.00 41 901.5
20191022101708 34 277 1.0 2.0 0.00 0.00 0.00 42 901.8
20191022101703 34 318 0.0 2.0 0.00 0.00 0.00 43 901.8
20191022101657 36 287 0.0 2.0 0.00 0.00 0.00 40 901.5
20191022101651 37 293 0.0 2.0 0.00 0.00 0.00 37 901.5
20191022101646 33 331 0.0 2.0 0.00 0.00 0.00 41 901.2